OK1LPD-6 Weather Reports


Display with metric or nautical units.
time (UTC)temp
F
wind
direction
speed
MPH
gust
MPH
rain 1hr
in
rain 24hr
in
rain mn
in
humidity
%
barometer
mb
20260504232450 61 0 0.0 0.0 0.05 0.05 0.05 76 1010.5
20260504231511 62 135 0.0 1.0 0.05 0.05 0.05 72 1010.6
20260504230451 62 0 0.0 0.0 0.05 0.05 0.05 71 1010.3
20260504225450 62 45 0.0 1.0 0.04 0.04 0.04 73 1010.7
20260504224508 62 0 0.0 0.0 0.01 0.01 0.01 75 1011.4
20260504223450 62 0 0.0 0.0 0.00 0.00 0.00 73 1011.8
20260504222450 63 0 0.0 0.0 0.00 0.00 0.00 70 1011.9
20260504221510 64 0 0.0 0.0 0.00 0.00 0.00 63 1012.5
20260504220450 63 0 0.0 0.0 0.00 0.00 0.00 65 1012.4
20260504215450 62 0 0.0 0.0 0.00 0.00 0.00 66 1012.3
20260504214508 62 0 0.0 0.0 0.00 0.00 0.00 68 1011.7
20260504213451 62 0 0.0 0.0 0.00 0.00 0.00 70 1011.3
20260504212451 62 0 0.0 0.0 0.00 0.00 0.00 69 1011.2
20260504211511 62 0 0.0 0.0 0.00 0.00 0.00 65 1011.2
20260504210452 62 0 0.0 0.0 0.00 0.00 0.00 64 1011.3
20260504205451 63 0 0.0 0.0 0.00 0.00 0.00 65 1011.3
20260504204509 63 0 0.0 0.0 0.00 0.00 0.00 65 1011.3
20260504203451 63 0 0.0 0.0 0.00 0.00 0.00 64 1011.4
20260504202451 63 0 0.0 0.0 0.00 0.00 0.00 63 1011.3
20260504201511 64 0 0.0 0.0 0.00 0.00 0.00 60 1011.3
20260504200451 64 0 0.0 0.0 0.00 0.00 0.00 60 1011.5
20260504195452 64 0 0.0 0.0 0.00 0.00 0.00 60 1011.5
20260504194512 64 0 0.0 0.0 0.00 0.00 0.00 60 1011.4
20260504193452 64 0 0.0 0.0 0.00 0.00 0.00 56 1011.3
20260504192452 64 0 0.0 0.0 0.00 0.00 0.00 55 1011.3
20260504191512 64 0 0.0 0.0 0.00 0.00 0.00 54 1011.3
20260504190452 65 0 0.0 0.0 0.00 0.00 0.00 53 1011.2
20260504185453 66 0 0.0 0.0 0.00 0.00 0.00 52 1011.2
20260504184510 67 0 0.0 0.0 0.00 0.00 0.00 51 1010.9
20260504183452 68 0 0.0 0.0 0.00 0.00 0.00 51 1011.0
20260504182452 69 0 0.0 0.0 0.00 0.00 0.00 47 1011.0
20260504181513 71 0 0.0 0.0 0.00 0.00 0.00 47 1011.0
20260504180453 72 0 0.0 0.0 0.00 0.00 0.00 44 1010.9
20260504175453 72 0 0.0 0.0 0.00 0.00 0.00 44 1010.9
20260504174511 73 0 0.0 0.0 0.00 0.00 0.00 40 1010.8
20260504173453 73 0 0.0 0.0 0.00 0.00 0.00 40 1010.9
20260504172454 74 0 0.0 0.0 0.00 0.00 0.00 39 1010.9
20260504171514 74 0 0.0 0.0 0.00 0.00 0.00 38 1010.9
20260504170453 75 0 0.0 0.0 0.00 0.00 0.00 36 1011.1
20260504150454 77 0 0.0 0.0 0.00 0.00 0.00 31 1011.6
20260504140455 77 0 0.0 0.0 0.00 0.00 0.00 31 1012.1
20260504130455 77 0 0.0 0.0 0.00 0.00 0.00 31 1012.6
20260504110456 74 0 0.0 0.0 0.00 0.00 0.00 32 1013.5
20260504100458 73 0 0.0 0.0 0.00 0.00 0.00 33 1014.1
20260504081518 70 0 0.0 0.0 0.00 0.00 0.00 42 1014.0
20260504080458 73 0 0.0 0.0 0.00 0.00 0.00 40 1014.0
20260504050459 53 0 0.0 0.0 0.00 0.00 0.00 72 1013.7
20260504045500 53 0 0.0 0.0 0.00 0.00 0.00 73 1013.5
20260504044518 53 0 0.0 0.0 0.00 0.00 0.00 73 1013.3
20260504043501 52 0 0.0 0.0 0.00 0.00 0.00 73 1013.3
20260504042501 52 0 0.0 0.0 0.00 0.00 0.00 74 1013.4
20260504041521 52 0 0.0 0.0 0.00 0.00 0.00 74 1013.4
20260504040501 51 0 0.0 0.0 0.00 0.00 0.00 75 1013.5
20260504035501 51 0 0.0 0.0 0.00 0.00 0.00 76 1013.7
20260504034513 51 0 0.0 0.0 0.00 0.00 0.00 78 1013.5
20260504033501 51 0 0.0 0.0 0.00 0.00 0.00 79 1013.5
20260504032501 51 0 0.0 0.0 0.00 0.00 0.00 74 1013.5
20260504031512 51 0 0.0 0.0 0.00 0.00 0.00 73 1013.2
20260504030501 52 0 0.0 0.0 0.00 0.00 0.00 72 1013.2
20260504025501 52 0 0.0 0.0 0.00 0.00 0.00 72 1013.4
20260504024511 52 0 0.0 0.0 0.00 0.00 0.00 73 1013.4
20260504023501 52 0 0.0 0.0 0.00 0.00 0.00 73 1013.4
20260504022501 53 0 0.0 0.0 0.00 0.00 0.00 74 1013.4
20260504021514 53 0 0.0 0.0 0.00 0.00 0.00 75 1013.3
20260504020501 53 0 0.0 0.0 0.00 0.00 0.00 71 1013.2
20260504015502 53 0 0.0 0.0 0.00 0.00 0.00 70 1012.9
20260504014512 54 0 0.0 0.0 0.00 0.00 0.00 70 1013.1
20260504013501 54 0 0.0 0.0 0.00 0.00 0.00 68 1013.1
20260504012503 54 0 0.0 0.0 0.00 0.00 0.00 67 1013.0
20260504011514 55 0 0.0 0.0 0.00 0.00 0.00 63 1012.9
20260504010502 55 0 0.0 0.0 0.00 0.00 0.00 62 1013.0
20260504005502 56 0 0.0 0.0 0.00 0.00 0.00 62 1012.9
20260504004513 57 0 0.0 0.0 0.00 0.00 0.00 60 1013.0
20260504003502 58 0 0.0 0.0 0.00 0.00 0.00 59 1012.8
20260504002502 58 314 0.0 1.0 0.00 0.00 0.00 58 1012.5
20260504001520 59 314 0.0 1.0 0.00 0.00 0.00 56 1012.4
20260504000503 60 0 0.0 0.0 0.00 0.00 0.00 54 1012.3
20260503235504 59 0 0.0 0.0 0.00 0.00 0.00 55 1012.3
20260503234521 60 0 0.0 0.0 0.00 0.00 0.00 54 1012.3
20260503233504 60 0 0.0 0.0 0.00 0.00 0.00 53 1012.3